Time,TemperatureF,DewpointF,PressureIn,WindDirection,WindDirectionDegrees,WindSpeedMPH,WindSpeedGustMPH,Humidity,HourlyPrecipIn,Conditions,Clouds,dailyrainin,SoftwareType,DateUTC
2013-02-17 00:01:00,46.0,41.0,30.01,SE,133,0.0,1.0,84,0.00,,,0.00,,2013-02-17 08:01:00,
2013-02-17 00:11:00,46.0,41.0,30.01,SE,133,0.0,1.0,84,0.00,,,0.00,,2013-02-17 08:11:00,
2013-02-17 00:21:00,45.0,41.0,30.01,SE,143,0.0,1.0,85,0.00,,,0.00,,2013-02-17 08:21:00,
2013-02-17 00:31:00,45.0,41.0,30.01,SE,138,0.0,1.0,86,0.00,,,0.00,,2013-02-17 08:31:00,
2013-02-17 00:42:00,45.0,41.0,30.01,SE,138,0.0,1.0,86,0.00,,,0.00,,2013-02-17 08:42:00,
2013-02-17 00:52:00,45.0,41.0,30.01,ESE,122,0.0,1.0,86,0.00,,,0.00,,2013-02-17 08:52:00,
2013-02-17 01:01:00,45.0,41.0,30.01,SE,134,0.0,0.0,86,0.00,,,0.00,,2013-02-17 09:01:00,
2013-02-17 01:11:00,45.0,41.0,30.01,SE,134,0.0,0.0,86,0.00,,,0.00,,2013-02-17 09:11:00,
2013-02-17 01:21:00,45.0,41.0,30.01,SE,134,0.0,0.0,87,0.00,,,0.00,,2013-02-17 09:21:00,
2013-02-17 01:31:00,44.0,40.0,30.01,SE,133,0.0,0.0,87,0.00,,,0.00,,2013-02-17 09:31:00,
2013-02-17 01:41:00,44.0,40.0,30.01,SE,133,0.0,0.0,87,0.00,,,0.00,,2013-02-17 09:41:00,
2013-02-17 01:51:00,44.0,41.0,30.01,ESE,122,0.0,1.0,88,0.00,,,0.00,,2013-02-17 09:51:00,
2013-02-17 02:01:00,44.0,41.0,30.01,ESE,122,0.0,0.0,88,0.00,,,0.00,,2013-02-17 10:01:00,
2013-02-17 02:11:00,44.0,41.0,30.01,ESE,122,0.0,0.0,88,0.00,,,0.00,,2013-02-17 10:11:00,
2013-02-17 02:21:00,43.0,40.0,30.01,ESE,122,0.0,0.0,89,0.00,,,0.00,,2013-02-17 10:21:00,
2013-02-17 02:31:00,43.0,40.0,30.01,ESE,122,0.0,1.0,90,0.00,,,0.00,,2013-02-17 10:31:00,
2013-02-17 02:41:00,43.0,40.0,30.01,ESE,122,0.0,1.0,90,0.00,,,0.00,,2013-02-17 10:41:00,
2013-02-17 02:51:00,43.0,40.0,30.01,ESE,121,0.0,0.0,89,0.00,,,0.00,,2013-02-17 10:51:00,
2013-02-17 03:01:00,43.0,40.0,29.99,ESE,122,0.0,1.0,89,0.00,,,0.00,,2013-02-17 11:01:00,
2013-02-17 03:11:00,43.0,40.0,29.99,ESE,122,0.0,1.0,89,0.00,,,0.00,,2013-02-17 11:11:00,
2013-02-17 03:21:00,42.0,39.0,29.99,ESE,122,0.0,0.0,89,0.00,,,0.00,,2013-02-17 11:21:00,
2013-02-17 03:32:00,41.0,39.0,29.98,ESE,122,0.0,0.0,91,0.00,,,0.00,,2013-02-17 11:32:00,
2013-02-17 03:41:00,41.0,39.0,29.98,ESE,122,0.0,0.0,91,0.00,,,0.00,,2013-02-17 11:41:00,
2013-02-17 03:52:00,41.0,39.0,29.98,South,186,0.0,1.0,92,0.00,,,0.00,,2013-02-17 11:52:00,
2013-02-17 04:02:00,41.0,39.0,29.98,South,186,0.0,0.0,93,0.00,,,0.00,,2013-02-17 12:02:00,
2013-02-17 04:11:00,41.0,39.0,29.98,South,186,0.0,0.0,93,0.00,,,0.00,,2013-02-17 12:11:00,
2013-02-17 04:22:00,41.0,39.0,29.98,NNE,15,1.0,2.0,92,0.00,,,0.00,,2013-02-17 12:22:00,
2013-02-17 04:31:00,41.0,39.0,29.98,NNE,15,0.0,0.0,91,0.00,,,0.00,,2013-02-17 12:31:00,
2013-02-17 04:42:00,41.0,39.0,29.98,NNE,15,0.0,0.0,91,0.00,,,0.00,,2013-02-17 12:42:00,
2013-02-17 04:52:00,41.0,39.0,29.98,NNE,15,0.0,0.0,91,0.00,,,0.00,,2013-02-17 12:52:00,
2013-02-17 05:02:00,41.0,39.0,29.99,NNE,15,0.0,0.0,91,0.00,,,0.00,,2013-02-17 13:02:00,
2013-02-17 05:11:00,41.0,39.0,29.99,NNE,15,0.0,0.0,91,0.00,,,0.00,,2013-02-17 13:11:00,
2013-02-17 05:21:00,41.0,39.0,29.99,NNE,15,0.0,1.0,91,0.00,,,0.00,,2013-02-17 13:21:00,
2013-02-17 05:32:00,40.0,38.0,29.99,ENE,63,0.0,0.0,91,0.00,,,0.00,,2013-02-17 13:32:00,
2013-02-17 05:41:00,40.0,38.0,29.99,ENE,63,0.0,0.0,91,0.00,,,0.00,,2013-02-17 13:41:00,
2013-02-17 05:51:00,40.0,38.0,29.99,ENE,63,0.0,0.0,92,0.00,,,0.00,,2013-02-17 13:51:00,
2013-02-17 06:01:00,40.0,38.0,29.99,ENE,64,0.0,1.0,92,0.00,,,0.00,,2013-02-17 14:01:00,
2013-02-17 06:11:00,40.0,38.0,29.99,ENE,64,0.0,1.0,92,0.00,,,0.00,,2013-02-17 14:11:00,
2013-02-17 06:21:00,39.0,37.0,29.99,ENE,64,0.0,0.0,92,0.00,,,0.00,,2013-02-17 14:21:00,
2013-02-17 06:32:00,39.0,37.0,30.00,NE,53,0.0,1.0,93,0.00,,,0.00,,2013-02-17 14:32:00,
2013-02-17 06:42:00,39.0,37.0,30.00,NE,53,0.0,1.0,93,0.00,,,0.00,,2013-02-17 14:42:00,
2013-02-17 06:52:00,39.0,37.0,30.01,NE,55,0.0,0.0,93,0.00,,,0.00,,2013-02-17 14:52:00,
2013-02-17 07:01:00,39.0,37.0,30.01,NE,55,0.0,1.0,94,0.00,,,0.00,,2013-02-17 15:01:00,
2013-02-17 07:11:00,39.0,37.0,30.01,NE,55,0.0,1.0,94,0.00,,,0.00,,2013-02-17 15:11:00,
2013-02-17 07:21:00,40.0,38.0,30.01,NE,56,0.0,0.0,94,0.00,,,0.00,,2013-02-17 15:21:00,
2013-02-17 07:31:00,40.0,38.0,30.02,NW,305,0.0,1.0,94,0.00,,,0.00,,2013-02-17 15:31:00,
2013-02-17 07:41:00,40.0,38.0,30.02,NW,305,0.0,1.0,94,0.00,,,0.00,,2013-02-17 15:41:00,
2013-02-17 07:51:00,41.0,39.0,30.02,NNE,23,1.0,1.0,92,0.00,,,0.00,,2013-02-17 15:51:00,
2013-02-17 08:01:00,42.0,40.0,30.02,North,351,0.0,2.0,92,0.00,,,0.00,,2013-02-17 16:01:00,
2013-02-17 08:11:00,42.0,40.0,30.02,North,351,0.0,2.0,92,0.00,,,0.00,,2013-02-17 16:11:00,
2013-02-17 08:21:00,43.0,40.0,30.02,NNE,29,1.0,3.0,90,0.00,,,0.00,,2013-02-17 16:21:00,
2013-02-17 08:31:00,44.0,41.0,30.02,NNE,13,1.0,3.0,88,0.00,,,0.00,,2013-02-17 16:31:00,
2013-02-17 08:41:00,44.0,41.0,30.02,NNE,13,1.0,3.0,88,0.00,,,0.00,,2013-02-17 16:41:00,
2013-02-17 08:51:00,46.0,41.0,30.02,NNW,345,1.0,3.0,84,0.00,,,0.00,,2013-02-17 16:51:00,
2013-02-17 09:02:00,48.0,42.0,30.02,NNE,15,0.0,3.0,81,0.00,,,0.00,,2013-02-17 17:02:00,
2013-02-17 09:11:00,48.0,42.0,30.02,NNE,15,0.0,3.0,81,0.00,,,0.00,,2013-02-17 17:11:00,
2013-02-17 09:21:00,50.0,43.0,30.02,SW,226,0.0,2.0,77,0.00,,,0.00,,2013-02-17 17:21:00,
2013-02-17 09:31:00,51.0,42.0,30.02,NNE,23,0.0,2.0,72,0.00,,,0.00,,2013-02-17 17:31:00,
2013-02-17 09:41:00,51.0,42.0,30.02,NNE,23,0.0,2.0,72,0.00,,,0.00,,2013-02-17 17:41:00,
2013-02-17 09:52:00,53.0,43.0,30.03,WSW,246,0.0,2.0,69,0.00,,,0.00,,2013-02-17 17:52:00,
2013-02-17 10:01:00,55.0,44.0,30.03,NNE,13,0.0,1.0,66,0.00,,,0.00,,2013-02-17 18:01:00,
2013-02-17 10:11:00,55.0,44.0,30.03,NNE,13,0.0,1.0,66,0.00,,,0.00,,2013-02-17 18:11:00,
2013-02-17 10:21:00,55.0,44.0,30.03,NW,305,0.0,3.0,66,0.00,,,0.00,,2013-02-17 18:21:00,
2013-02-17 10:33:00,55.0,43.0,30.03,NNW,340,0.0,4.0,65,0.00,,,0.00,,2013-02-17 18:33:00,
2013-02-17 10:42:00,55.0,43.0,30.03,NNW,340,0.0,4.0,65,0.00,,,0.00,,2013-02-17 18:42:00,
2013-02-17 10:52:00,56.0,44.0,30.03,WNW,285,1.0,5.0,65,0.00,,,0.00,,2013-02-17 18:52:00,
2013-02-17 11:01:00,56.0,44.0,30.03,NNE,18,0.0,5.0,63,0.00,,,0.00,,2013-02-17 19:01:00,
2013-02-17 11:11:00,56.0,44.0,30.03,NNE,18,0.0,5.0,63,0.00,,,0.00,,2013-02-17 19:11:00,
2013-02-17 11:21:00,57.0,43.0,30.02,NNE,18,1.0,4.0,60,0.00,,,0.00,,2013-02-17 19:21:00,
2013-02-17 11:32:00,59.0,45.0,30.02,West,269,0.0,3.0,59,0.00,,,0.00,,2013-02-17 19:32:00,
2013-02-17 11:41:00,59.0,45.0,30.02,West,269,0.0,3.0,59,0.00,,,0.00,,2013-02-17 19:41:00,
2013-02-17 11:51:00,60.0,43.0,30.01,NE,54,1.0,5.0,54,0.00,,,0.00,,2013-02-17 19:51:00,
2013-02-17 12:01:00,60.0,44.0,30.01,WNW,283,1.0,5.0,55,0.00,,,0.00,,2013-02-17 20:01:00,
2013-02-17 12:11:00,60.0,44.0,30.01,WNW,283,1.0,5.0,55,0.00,,,0.00,,2013-02-17 20:11:00,
2013-02-17 12:21:00,61.0,44.0,30.01,WSW,240,0.0,4.0,53,0.00,,,0.00,,2013-02-17 20:21:00,
2013-02-17 12:31:00,62.0,45.0,30.00,SSE,159,0.0,5.0,53,0.00,,,0.00,,2013-02-17 20:31:00,
2013-02-17 12:42:00,62.0,45.0,30.00,SSE,159,0.0,5.0,53,0.00,,,0.00,,2013-02-17 20:42:00,
2013-02-17 12:52:00,63.0,45.0,29.99,NW,307,1.0,4.0,51,0.00,,,0.00,,2013-02-17 20:52:00,
2013-02-17 13:01:00,64.0,44.0,29.98,SW,233,0.0,3.0,49,0.00,,,0.00,,2013-02-17 21:01:00,
2013-02-17 13:11:00,64.0,44.0,29.98,SW,233,0.0,3.0,49,0.00,,,0.00,,2013-02-17 21:11:00,
2013-02-17 13:21:00,65.0,44.0,29.97,West,259,1.0,4.0,47,0.00,,,0.00,,2013-02-17 21:21:00,
2013-02-17 13:31:00,64.0,44.0,29.97,NE,46,1.0,6.0,48,0.00,,,0.00,,2013-02-17 21:31:00,
2013-02-17 13:41:00,64.0,44.0,29.97,NE,46,1.0,6.0,48,0.00,,,0.00,,2013-02-17 21:41:00,
2013-02-17 13:52:00,65.0,45.0,29.96,WNW,302,1.0,4.0,48,0.00,,,0.00,,2013-02-17 21:52:00,
2013-02-17 14:01:00,65.0,44.0,29.96,NNW,335,1.0,4.0,46,0.00,,,0.00,,2013-02-17 22:01:00,
2013-02-17 14:11:00,65.0,44.0,29.96,NNW,335,1.0,4.0,46,0.00,,,0.00,,2013-02-17 22:11:00,
2013-02-17 14:21:00,65.0,44.0,29.96,NNW,335,1.0,4.0,46,0.00,,,0.00,,2013-02-17 22:21:00,
2013-02-17 14:32:00,65.0,45.0,29.96,West,266,1.0,6.0,48,0.00,,,0.00,,2013-02-17 22:32:00,
2013-02-17 14:41:00,65.0,45.0,29.96,West,266,1.0,6.0,48,0.00,,,0.00,,2013-02-17 22:41:00,
2013-02-17 14:52:00,65.0,44.0,29.95,NNW,340,0.0,5.0,46,0.00,,,0.00,,2013-02-17 22:52:00,
2013-02-17 15:01:00,66.0,43.0,29.95,NNE,16,2.0,8.0,43,0.00,,,0.00,,2013-02-17 23:01:00,
2013-02-17 15:11:00,66.0,43.0,29.95,NNE,16,2.0,8.0,43,0.00,,,0.00,,2013-02-17 23:11:00,
2013-02-17 15:21:00,66.0,42.0,29.94,NNE,13,1.0,6.0,41,0.00,,,0.00,,2013-02-17 23:21:00,
2013-02-17 15:31:00,66.0,42.0,29.94,North,357,1.0,7.0,42,0.00,,,0.00,,2013-02-17 23:31:00,
2013-02-17 15:41:00,66.0,42.0,29.94,North,357,1.0,7.0,42,0.00,,,0.00,,2013-02-17 23:41:00,
2013-02-17 15:52:00,66.0,41.0,29.94,NNE,32,1.0,7.0,40,0.00,,,0.00,,2013-02-17 23:52:00,
2013-02-17 16:01:00,66.0,42.0,29.94,NNE,26,3.0,7.0,41,0.00,,,0.00,,2013-02-18 00:01:00,
2013-02-17 16:11:00,66.0,42.0,29.94,NNE,26,3.0,7.0,41,0.00,,,0.00,,2013-02-18 00:11:00,
2013-02-17 16:22:00,67.0,42.0,29.93,NNE,23,2.0,5.0,40,0.00,,,0.00,,2013-02-18 00:22:00,
2013-02-17 16:31:00,66.0,41.0,29.93,ENE,58,0.0,2.0,40,0.00,,,0.00,,2013-02-18 00:31:00,
2013-02-17 16:41:00,66.0,41.0,29.93,ENE,58,0.0,2.0,40,0.00,,,0.00,,2013-02-18 00:41:00,
2013-02-17 16:52:00,66.0,42.0,29.93,NNE,18,0.0,3.0,41,0.00,,,0.00,,2013-02-18 00:52:00,
2013-02-17 17:01:00,65.0,40.0,29.93,North,357,2.0,5.0,40,0.00,,,0.00,,2013-02-18 01:01:00,
2013-02-17 17:11:00,65.0,40.0,29.93,North,357,2.0,5.0,40,0.00,,,0.00,,2013-02-18 01:11:00,
2013-02-17 17:21:00,65.0,41.0,29.93,NE,36,0.0,2.0,42,0.00,,,0.00,,2013-02-18 01:21:00,
2013-02-17 17:31:00,64.0,42.0,29.92,North,360,0.0,2.0,44,0.00,,,0.00,,2013-02-18 01:31:00,
2013-02-17 17:41:00,64.0,42.0,29.92,North,360,0.0,2.0,44,0.00,,,0.00,,2013-02-18 01:41:00,
2013-02-17 17:51:00,64.0,42.0,29.92,WNW,292,0.0,1.0,44,0.00,,,0.00,,2013-02-18 01:51:00,
2013-02-17 18:01:00,62.0,42.0,29.93,North,1,0.0,0.0,48,0.00,,,0.00,,2013-02-18 02:01:00,
2013-02-17 18:11:00,62.0,42.0,29.93,North,1,0.0,0.0,48,0.00,,,0.00,,2013-02-18 02:11:00,
2013-02-17 18:21:00,59.0,41.0,29.93,North,1,0.0,0.0,52,0.00,,,0.00,,2013-02-18 02:21:00,
2013-02-17 18:31:00,57.0,41.0,29.93,North,1,0.0,0.0,56,0.00,,,0.00,,2013-02-18 02:31:00,
2013-02-17 18:41:00,57.0,41.0,29.93,North,1,0.0,0.0,56,0.00,,,0.00,,2013-02-18 02:41:00,
2013-02-17 18:51:00,56.0,42.0,29.93,North,1,0.0,0.0,60,0.00,,,0.00,,2013-02-18 02:51:00,
2013-02-17 19:01:00,54.0,41.0,29.93,North,1,0.0,0.0,61,0.00,,,0.00,,2013-02-18 03:01:00,
2013-02-17 19:11:00,54.0,41.0,29.93,North,1,0.0,0.0,61,0.00,,,0.00,,2013-02-18 03:11:00,
2013-02-17 19:21:00,54.0,42.0,29.93,North,1,0.0,0.0,64,0.00,,,0.00,,2013-02-18 03:21:00,
2013-02-17 19:31:00,54.0,42.0,29.93,North,1,0.0,0.0,64,0.00,,,0.00,,2013-02-18 03:31:00,
2013-02-17 19:41:00,54.0,42.0,29.93,North,1,0.0,0.0,64,0.00,,,0.00,,2013-02-18 03:41:00,
2013-02-17 19:51:00,53.0,42.0,29.93,North,1,0.0,0.0,65,0.00,,,0.00,,2013-02-18 03:51:00,
2013-02-17 20:01:00,53.0,42.0,29.93,North,1,0.0,0.0,67,0.00,,,0.00,,2013-02-18 04:01:00,
2013-02-17 20:11:00,53.0,42.0,29.93,North,1,0.0,0.0,67,0.00,,,0.00,,2013-02-18 04:11:00,
2013-02-17 20:21:00,51.0,41.0,29.94,North,1,0.0,0.0,69,0.00,,,0.00,,2013-02-18 04:21:00,
2013-02-17 20:32:00,51.0,42.0,29.94,North,1,0.0,0.0,70,0.00,,,0.00,,2013-02-18 04:32:00,
2013-02-17 20:41:00,51.0,42.0,29.94,North,1,0.0,0.0,70,0.00,,,0.00,,2013-02-18 04:41:00,
2013-02-17 20:51:00,50.0,41.0,29.94,North,1,0.0,0.0,72,0.00,,,0.00,,2013-02-18 04:51:00,
2013-02-17 21:01:00,50.0,41.0,29.95,SSW,205,0.0,1.0,71,0.00,,,0.00,,2013-02-18 05:01:00,
2013-02-17 21:11:00,50.0,41.0,29.95,SSW,205,0.0,1.0,71,0.00,,,0.00,,2013-02-18 05:11:00,
2013-02-17 21:21:00,50.0,40.0,29.95,WSW,243,0.0,0.0,68,0.00,,,0.00,,2013-02-18 05:21:00,
2013-02-17 21:31:00,49.0,39.0,29.95,WSW,243,0.0,1.0,67,0.00,,,0.00,,2013-02-18 05:31:00,
2013-02-17 21:41:00,49.0,39.0,29.95,WSW,243,0.0,1.0,67,0.00,,,0.00,,2013-02-18 05:41:00,
2013-02-17 21:51:00,49.0,39.0,29.96,WSW,243,0.0,1.0,67,0.00,,,0.00,,2013-02-18 05:51:00,
2013-02-17 22:02:00,48.0,38.0,29.96,WSW,243,0.0,0.0,69,0.00,,,0.00,,2013-02-18 06:02:00,
2013-02-17 22:11:00,48.0,38.0,29.96,WSW,243,0.0,0.0,69,0.00,,,0.00,,2013-02-18 06:11:00,
2013-02-17 22:21:00,48.0,39.0,29.96,WSW,243,0.0,0.0,70,0.00,,,0.00,,2013-02-18 06:21:00,
2013-02-17 22:31:00,47.0,38.0,29.96,SE,143,0.0,1.0,72,0.00,,,0.00,,2013-02-18 06:31:00,
2013-02-17 22:41:00,46.0,38.0,29.96,SE,142,0.0,0.0,74,0.00,,,0.00,,2013-02-18 06:41:00,
2013-02-17 22:51:00,46.0,38.0,29.96,SE,142,0.0,0.0,74,0.00,,,0.00,,2013-02-18 06:51:00,
2013-02-17 23:01:00,46.0,39.0,29.96,SE,143,0.0,0.0,75,0.00,,,0.00,,2013-02-18 07:01:00,
2013-02-17 23:11:00,46.0,39.0,29.96,SE,143,0.0,0.0,75,0.00,,,0.00,,2013-02-18 07:11:00,
2013-02-17 23:21:00,45.0,39.0,29.96,SE,141,0.0,1.0,78,0.00,,,0.00,,2013-02-18 07:21:00,
2013-02-17 23:31:00,44.0,38.0,29.96,SE,141,0.0,0.0,80,0.00,,,0.00,,2013-02-18 07:31:00,
2013-02-17 23:42:00,44.0,38.0,29.96,SE,141,0.0,0.0,80,0.00,,,0.00,,2013-02-18 07:42:00,
2013-02-17 23:51:00,43.0,38.0,29.97,SE,134,0.0,0.0,83,0.00,,,0.00,,2013-02-18 07:51:00,